This is the latest recevied weather packets stored in our database for station/object WZ9ZZZ-1. If no packets are shown the sender has not sent any weather packets the latest 10 day(s).
| Time | Temp. | Humidity | Pressure | Rain* | Wind** | Luminosity | Snow |
|---|---|---|---|---|---|---|---|
| 1777935519 | 24.44° C | 72% | 1015.5 hPa | 0 mm | - | 80 W/m² | - |
| 1777935215 | 25° C | 72% | 1015.5 hPa | 0 mm | - | 140 W/m² | - |
| 1777934913 | 25° C | 72% | 1015.7 hPa | 0 mm | - | 170 W/m² | - |
| 1777934610 | 25° C | 71% | 1015.5 hPa | 0 mm | - | 155 W/m² | - |
| 1777934306 | 25° C | 71% | 1015.7 hPa | 0 mm | - | 161 W/m² | - |
| 1777934002 | 25° C | 71% | 1015.7 hPa | 0 mm | - | 187 W/m² | - |
| 1777933699 | 25° C | 71% | 1015.9 hPa | 0 mm | - | 151 W/m² | - |
| 1777933396 | 25° C | 72% | 1015.9 hPa | 0 mm | - | 113 W/m² | - |
| 1777933094 | 25° C | 72% | 1015.8 hPa | 0 mm | - | 140 W/m² | - |
| 1777932790 | 25° C | 71% | 1016.1 hPa | 0 mm | - | 99 W/m² | - |
| 1777932487 | 25° C | 71% | 1016.2 hPa | 0 mm | - | 102 W/m² | - |
| 1777932184 | 25° C | 70% | 1015.9 hPa | 0 mm | - | 101 W/m² | - |
| 1777931882 | 25.56° C | 70% | 1015.9 hPa | 0 mm | - | 117 W/m² | - |
| 1777931578 | 25° C | 70% | 1016 hPa | 0 mm | - | 122 W/m² | - |
| 1777931274 | 25° C | 70% | 1016.2 hPa | 0 mm | - | 122 W/m² | - |
| 1777930970 | 25° C | 69% | 1016 hPa | 0 mm | - | 133 W/m² | - |
| 1777930667 | 25.56° C | 69% | 1016.5 hPa | 0 mm | - | 199 W/m² | - |
| 1777930363 | 25.56° C | 69% | 1016.3 hPa | 0 mm | - | 255 W/m² | - |
| 1777930061 | 25.56° C | 68% | 1016.2 hPa | 0 mm | - | 217 W/m² | - |
| 1777929757 | 25.56° C | 69% | 1016.4 hPa | 0 mm | - | 303 W/m² | - |
| 1777929455 | 25.56° C | 68% | 1016.6 hPa | 0 mm | - | 222 W/m² | - |
| 1777929151 | 25.56° C | 68% | 1016.6 hPa | 0 mm | - | 262 W/m² | - |
| 1777928849 | 25.56° C | 67% | 1016.4 hPa | 0 mm | - | 209 W/m² | - |
| 1777928545 | 25.56° C | 68% | 1016.6 hPa | 0 mm | - | 203 W/m² | - |
| 1777928242 | 25.56° C | 67% | 1016.7 hPa | 0 mm | - | 239 W/m² | - |
* Rain latest hour (hover to see other rain measurements)
** Current wind speed in m/s (hover to see current wind gust speed)